Tracking 28790 objects as of 19-Apr-2024
HD Live streaming from Space Station
objects crossing your sky now

DELTA 1 DEB

Track DELTA 1 DEB now!
10-day predictions


NORAD ID: 21545
Int'l Code: 1975-052GZ
Perigee: 1,009.9 km
Apogee: 1,359.5 km
Inclination: 99.6 °
Period: 108.9 minutes
Semi major axis: 7555 km
RCS: 0.0066 m2 (small)
Launch date: June 12, 1975
Source: United States (US)
Launch site: AIR FORCE WESTERN TEST RANGE (AFWTR)

Note: This is SATELLITE DEBRIS
Your satellite tracking list
Your tracking list is empty




NASA's NSSDC Master Catalog

Two Line Element Set (TLE):
1 21545U 75052GZ  24109.00814444  .00000309  00000-0  72984-3 0  9992
2 21545  99.6184 298.9125 0231341 148.6643   3.5575 13.21881278588465
Source of the keplerian elements: AFSPC